TimeCDT,TemperatureF,Dew PointF,Humidity,Sea Level PressureIn,VisibilityMPH,Wind Direction,Wind SpeedMPH,Gust SpeedMPH,PrecipitationIn,Events,Conditions,WindDirDegrees,DateUTC
12:15 AM,48.2,17.6,30,29.99,10.0,South,23.0,27.6,N/A,,Clear,180,2013-03-27 05:15:00
12:35 AM,48.2,15.8,27,29.99,10.0,South,21.9,-,N/A,,Clear,180,2013-03-27 05:35:00
12:55 AM,46.4,15.8,29,29.98,10.0,South,21.9,27.6,N/A,,Clear,180,2013-03-27 05:55:00
1:15 AM,46.4,15.8,29,29.98,10.0,South,25.3,31.1,N/A,,Partly Cloudy,180,2013-03-27 06:15:00
1:35 AM,46.4,15.8,29,29.97,10.0,South,25.3,31.1,N/A,,Partly Cloudy,180,2013-03-27 06:35:00
1:55 AM,46.4,15.8,29,29.97,10.0,South,20.7,-,N/A,,Clear,180,2013-03-27 06:55:00
2:15 AM,44.6,15.8,31,29.97,10.0,South,20.7,-,N/A,,Clear,180,2013-03-27 07:15:00
2:35 AM,44.6,15.8,31,29.96,10.0,South,19.6,-,N/A,,Clear,180,2013-03-27 07:35:00
2:55 AM,42.8,15.8,34,29.96,10.0,South,19.6,-,N/A,,Clear,180,2013-03-27 07:55:00
3:15 AM,42.8,15.8,34,29.95,10.0,South,18.4,-,N/A,,Clear,180,2013-03-27 08:15:00
3:35 AM,42.8,15.8,34,29.94,10.0,South,18.4,-,N/A,,Clear,180,2013-03-27 08:35:00
3:55 AM,41.0,15.8,36,29.93,10.0,South,18.4,-,N/A,,Clear,190,2013-03-27 08:55:00
4:15 AM,41.0,15.8,36,29.92,10.0,South,17.3,-,N/A,,Clear,190,2013-03-27 09:15:00
4:35 AM,39.2,15.8,39,29.92,10.0,South,12.7,-,N/A,,Clear,190,2013-03-27 09:35:00
4:55 AM,37.4,15.8,41,29.92,10.0,South,12.7,-,N/A,,Clear,190,2013-03-27 09:55:00
5:15 AM,37.4,15.8,41,29.93,10.0,SSW,12.7,-,N/A,,Clear,200,2013-03-27 10:15:00
5:35 AM,35.6,15.8,44,29.92,10.0,SSW,12.7,-,N/A,,Clear,200,2013-03-27 10:35:00
5:55 AM,35.6,15.8,44,29.92,10.0,SSW,12.7,-,N/A,,Clear,200,2013-03-27 10:55:00
6:15 AM,37.4,17.6,45,29.92,10.0,South,16.1,-,N/A,,Clear,190,2013-03-27 11:15:00
6:35 AM,37.4,17.6,45,29.93,10.0,SSW,11.5,-,N/A,,Clear,210,2013-03-27 11:35:00
6:55 AM,37.4,17.6,45,29.95,10.0,West,6.9,-,N/A,,Clear,270,2013-03-27 11:55:00
7:15 AM,37.4,17.6,45,29.95,10.0,WSW,9.2,-,N/A,,Clear,250,2013-03-27 12:15:00
7:35 AM,35.6,17.6,48,29.96,10.0,West,10.4,-,N/A,,Clear,260,2013-03-27 12:35:00
7:55 AM,35.6,17.6,48,29.97,10.0,West,11.5,-,N/A,,Clear,260,2013-03-27 12:55:00
8:15 AM,37.4,19.4,48,29.98,10.0,West,10.4,-,N/A,,Clear,260,2013-03-27 13:15:00
8:35 AM,39.2,23.0,52,29.98,10.0,WNW,9.2,-,N/A,,Clear,290,2013-03-27 13:35:00
8:55 AM,39.2,23.0,52,29.99,10.0,WNW,13.8,-,N/A,,Clear,300,2013-03-27 13:55:00
9:15 AM,39.2,21.2,49,30.00,10.0,NW,15.0,-,N/A,,Clear,310,2013-03-27 14:15:00
9:35 AM,39.2,21.2,49,30.00,10.0,NW,17.3,-,N/A,,Clear,310,2013-03-27 14:35:00
9:55 AM,41.0,21.2,45,30.00,10.0,NW,20.7,-,N/A,,Clear,310,2013-03-27 14:55:00
10:15 AM,44.6,24.8,46,30.00,10.0,NW,18.4,-,N/A,,Clear,320,2013-03-27 15:15:00
10:35 AM,44.6,23.0,43,30.02,10.0,NW,18.4,-,N/A,,Clear,320,2013-03-27 15:35:00
10:55 AM,44.6,23.0,43,30.02,10.0,NNW,17.3,24.2,N/A,,Clear,330,2013-03-27 15:55:00
11:15 AM,48.2,24.8,40,30.03,10.0,NNW,18.4,24.2,N/A,,Clear,330,2013-03-27 16:15:00
11:35 AM,50.0,26.6,40,30.04,10.0,NNW,18.4,24.2,N/A,,Clear,340,2013-03-27 16:35:00
11:55 AM,51.8,26.6,38,30.04,10.0,NNW,20.7,26.5,N/A,,Clear,340,2013-03-27 16:55:00
12:15 PM,51.8,26.6,38,30.04,10.0,NNW,21.9,28.8,N/A,,Clear,340,2013-03-27 17:15:00
12:35 PM,53.6,26.6,35,30.04,10.0,North,19.6,27.6,N/A,,Clear,10,2013-03-27 17:35:00
12:55 PM,55.4,26.6,33,30.04,10.0,North,21.9,25.3,N/A,,Clear,10,2013-03-27 17:55:00
1:15 PM,57.2,28.4,33,30.04,10.0,North,15.0,21.9,N/A,,Clear,10,2013-03-27 18:15:00
1:35 PM,57.2,28.4,33,30.05,10.0,North,15.0,21.9,N/A,,Clear,10,2013-03-27 18:35:00
1:55 PM,59.0,28.4,31,30.05,10.0,NNE,12.7,23.0,N/A,,Clear,20,2013-03-27 18:55:00
2:15 PM,60.8,26.6,27,30.04,10.0,North,13.8,20.7,N/A,,Clear,10,2013-03-27 19:15:00
2:35 PM,60.8,26.6,27,30.04,10.0,NNE,13.8,24.2,N/A,,Clear,20,2013-03-27 19:35:00
2:55 PM,60.8,26.6,27,30.04,10.0,NNE,16.1,19.6,N/A,,Clear,20,2013-03-27 19:55:00
3:15 PM,62.6,26.6,26,30.04,10.0,NNE,15.0,20.7,N/A,,Clear,30,2013-03-27 20:15:00
3:35 PM,62.6,28.4,27,30.04,10.0,NNE,9.2,18.4,N/A,,Clear,30,2013-03-27 20:35:00
3:55 PM,62.6,26.6,26,30.04,10.0,NE,10.4,17.3,N/A,,Clear,50,2013-03-27 20:55:00
4:15 PM,62.6,26.6,26,30.04,10.0,NNE,15.0,-,N/A,,Clear,20,2013-03-27 21:15:00
4:35 PM,62.6,26.6,26,30.04,10.0,NE,11.5,19.6,N/A,,Clear,40,2013-03-27 21:35:00
4:55 PM,64.4,26.6,24,30.04,10.0,ENE,11.5,20.7,N/A,,Clear,60,2013-03-27 21:55:00
5:15 PM,62.6,26.6,26,30.05,10.0,NNE,12.7,17.3,N/A,,Clear,20,2013-03-27 22:15:00
5:35 PM,62.6,26.6,26,30.04,10.0,NE,12.7,18.4,N/A,,Clear,50,2013-03-27 22:35:00
5:55 PM,62.6,26.6,26,30.05,10.0,NE,12.7,-,N/A,,Clear,50,2013-03-27 22:55:00
6:15 PM,62.6,24.8,24,30.05,10.0,ENE,13.8,18.4,N/A,,Clear,60,2013-03-27 23:15:00
6:35 PM,62.6,26.6,26,30.06,10.0,ENE,12.7,-,N/A,,Clear,60,2013-03-27 23:35:00
6:55 PM,60.8,24.8,25,30.06,10.0,ENE,11.5,-,N/A,,Clear,60,2013-03-27 23:55:00
7:15 PM,60.8,24.8,25,30.07,10.0,East,12.7,-,N/A,,Clear,80,2013-03-28 00:15:00
7:35 PM,59.0,24.8,27,30.07,10.0,ENE,12.7,-,N/A,,Clear,70,2013-03-28 00:35:00
7:55 PM,57.2,24.8,29,30.07,10.0,ENE,9.2,-,N/A,,Clear,70,2013-03-28 00:55:00
8:15 PM,55.4,24.8,31,30.08,10.0,East,8.1,-,N/A,,Clear,80,2013-03-28 01:15:00
8:35 PM,53.6,24.8,33,30.08,10.0,ENE,9.2,-,N/A,,Clear,60,2013-03-28 01:35:00
8:55 PM,53.6,24.8,33,30.08,10.0,ENE,12.7,-,N/A,,Clear,60,2013-03-28 01:55:00
9:15 PM,53.6,24.8,33,30.09,10.0,ENE,10.4,-,N/A,,Clear,70,2013-03-28 02:15:00
9:35 PM,51.8,24.8,35,30.08,10.0,ENE,13.8,-,N/A,,Clear,60,2013-03-28 02:35:00
9:55 PM,51.8,23.0,33,30.08,10.0,ENE,12.7,-,N/A,,Clear,60,2013-03-28 02:55:00
10:15 PM,50.0,24.8,37,30.09,10.0,ENE,12.7,-,N/A,,Clear,60,2013-03-28 03:15:00
10:35 PM,48.2,23.0,37,30.10,10.0,ENE,9.2,17.3,N/A,,Clear,70,2013-03-28 03:35:00
10:55 PM,48.2,24.8,40,30.12,10.0,ENE,9.2,-,N/A,,Clear,70,2013-03-28 03:55:00
11:15 PM,48.2,26.6,43,30.13,10.0,ENE,8.1,-,N/A,,Clear,70,2013-03-28 04:15:00
11:35 PM,48.2,26.6,43,30.13,10.0,ENE,8.1,-,N/A,,Clear,70,2013-03-28 04:35:00
11:55 PM,48.2,26.6,43,30.13,10.0,ENE,11.5,-,N/A,,Clear,70,2013-03-28 04:55:00